• în Republica Moldova
  • Lista ţărilor
  • Pe 7 zile
  • Temperatura apei
  • Hartă satelitară
  • Meteo pe hartă
  • Widget-uri
  • user-avatar
    Intrare

    Meteo pe oră la Nikulino

    Astăzi, 17 August, Vineri

    Timp Temperatura Precipitaţii Vânt Presiune Umiditate
    00:00 +14°C° 0 mm 1 m/s 757 mmHg 92%
    01:00 +14°C° 0 mm 1 m/s 757 mmHg 94%
    02:00 +13°C° 0 mm 1 m/s 758 mmHg 95%
    03:00 +13°C° 0 mm 1 m/s 758 mmHg 96%
    04:00 +13°C° 0 mm 1 m/s 758 mmHg 96%
    05:00 +13°C° 0 mm 1 m/s 758 mmHg 96%
    06:00 +15°C° 0 mm 1 m/s 758 mmHg 89%
    07:00 +18°C° 0 mm 1 m/s 758 mmHg 82%
    08:00 +19°C° 0 mm 1 m/s 758 mmHg 73%
    09:00 +20°C° 0 mm 2 m/s 758 mmHg 67%
    10:00 +21°C° 0 mm 2 m/s 758 mmHg 61%
    11:00 +24°C° 0 mm 2 m/s 758 mmHg 56%
    12:00 +24°C° 0 mm 2 m/s 758 mmHg 54%
    13:00 +25°C° 0 mm 2 m/s 758 mmHg 51%
    14:00 +26°C° 0 mm 2 m/s 758 mmHg 49%
    15:00 +26°C° 0 mm 2 m/s 757 mmHg 51%
    16:00 +25°C° 0 mm 2 m/s 757 mmHg 54%
    17:00 +25°C° 0 mm 1 m/s 757 mmHg 57%
    18:00 +23°C° 0 mm 1 m/s 757 mmHg 64%
    19:00 +21°C° 0 mm 1 m/s 757 mmHg 71%
    20:00 +19°C° 0 mm 1 m/s 757 mmHg 78%
    21:00 +18°C° 0 mm 1 m/s 757 mmHg 81%
    22:00 +17°C° 0 mm 2 m/s 757 mmHg 83%
    23:00 +16°C° 0 mm 2 m/s 757 mmHg 86%

    Mâine, 18 August, Sâmbătă

    Timp Temperatura Precipitaţii Vânt Presiune Umiditate
    00:00 +16°C° 0 mm 2 m/s 757 mmHg 89%
    01:00 +15°C° 0 mm 2 m/s 757 mmHg 91%
    02:00 +15°C° 0 mm 2 m/s 757 mmHg 94%
    03:00 +15°C° 0 mm 2 m/s 757 mmHg 95%
    04:00 +15°C° 0 mm 2 m/s 757 mmHg 95%
    05:00 +15°C° 0 mm 2 m/s 757 mmHg 96%
    06:00 +16°C° 0 mm 2 m/s 757 mmHg 90%
    07:00 +18°C° 0 mm 2 m/s 757 mmHg 83%
    08:00 +20°C° 0 mm 2 m/s 757 mmHg 76%
    09:00 +21°C° 0,1 mm 2 m/s 757 mmHg 72%
    10:00 +24°C° 0,1 mm 3 m/s 757 mmHg 68%
    11:00 +25°C° 0,1 mm 3 m/s 757 mmHg 63%
    12:00 +26°C° 0,4 mm 3 m/s 756 mmHg 66%
    13:00 +26°C° 0,4 mm 3 m/s 756 mmHg 68%
    14:00 +26°C° 0,4 mm 3 m/s 756 mmHg 71%
    15:00 +25°C° 0,5 mm 3 m/s 755 mmHg 75%
    16:00 +25°C° 0,5 mm 2 m/s 755 mmHg 79%
    17:00 +24°C° 0,5 mm 2 m/s 755 mmHg 83%
    18:00 +23°C° 0,2 mm 2 m/s 755 mmHg 87%
    19:00 +21°C° 0,2 mm 2 m/s 755 mmHg 90%
    20:00 +19°C° 0,2 mm 2 m/s 755 mmHg 94%
    21:00 +19°C° 0 mm 2 m/s 755 mmHg 95%
    22:00 +18°C° 0 mm 2 m/s 755 mmHg 96%
    23:00 +18°C° 0 mm 2 m/s 755 mmHg 97%

    Poimâine, 19 August, Duminică

    Timp Temperatura Precipitaţii Vânt Presiune Umiditate
    00:00 +18°C° 0 mm 2 m/s 755 mmHg 97%
    01:00 +17°C° 0 mm 2 m/s 754 mmHg 97%
    02:00 +17°C° 0 mm 2 m/s 754 mmHg 97%
    03:00 +17°C° 0 mm 2 m/s 754 mmHg 98%
    04:00 +17°C° 0 mm 2 m/s 754 mmHg 98%
    05:00 +17°C° 0 mm 2 m/s 754 mmHg 98%
    06:00 +18°C° 0 mm 2 m/s 754 mmHg 95%
    07:00 +19°C° 0 mm 2 m/s 754 mmHg 92%
    08:00 +20°C° 0 mm 2 m/s 754 mmHg 89%
    09:00 +21°C° 0,3 mm 3 m/s 754 mmHg 85%
    10:00 +22°C° 0,3 mm 3 m/s 754 mmHg 80%
    11:00 +25°C° 0,3 mm 3 m/s 754 mmHg 75%
    12:00 +25°C° 0,3 mm 3 m/s 753 mmHg 69%
    13:00 +25°C° 0,3 mm 3 m/s 753 mmHg 63%
    14:00 +26°C° 0,3 mm 4 m/s 753 mmHg 57%
    15:00 +26°C° 0 mm 3 m/s 752 mmHg 56%
    16:00 +25°C° 0 mm 3 m/s 752 mmHg 55%
    17:00 +25°C° 0 mm 2 m/s 752 mmHg 54%
    18:00 +23°C° 0 mm 2 m/s 752 mmHg 61%
    19:00 +20°C° 0 mm 2 m/s 752 mmHg 68%
    20:00 +19°C° 0 mm 2 m/s 753 mmHg 74%
    21:00 +18°C° 0 mm 2 m/s 753 mmHg 80%
    22:00 +18°C° 0 mm 2 m/s 753 mmHg 85%
    23:00 +17°C° 0 mm 2 m/s 753 mmHg 91%

    20 August, Luni

    Timp Temperatura Precipitaţii Vânt Presiune Umiditate
    00:00 +17°C° 0 mm 2 m/s 753 mmHg 93%
    01:00 +17°C° 0 mm 2 m/s 753 mmHg 94%
    02:00 +16°C° 0 mm 2 m/s 753 mmHg 96%
    03:00 +16°C° 0 mm 2 m/s 753 mmHg 97%
    04:00 +16°C° 0 mm 2 m/s 753 mmHg 97%
    05:00 +16°C° 0 mm 2 m/s 753 mmHg 98%
    06:00 +17°C° 0 mm 2 m/s 753 mmHg 94%
    07:00 +17°C° 0 mm 2 m/s 753 mmHg 90%
    08:00 +18°C° 0 mm 2 m/s 753 mmHg 87%
    09:00 +19°C° 0,1 mm 2 m/s 753 mmHg 83%
    10:00 +20°C° 0,1 mm 3 m/s 753 mmHg 79%
    11:00 +21°C° 0,1 mm 3 m/s 753 mmHg 75%
    12:00 +21°C° 0,4 mm 3 m/s 753 mmHg 76%
    13:00 +21°C° 0,4 mm 3 m/s 752 mmHg 78%
    14:00 +21°C° 0,4 mm 3 m/s 752 mmHg 79%
    15:00 +21°C° 0,5 mm 2 m/s 752 mmHg 82%
    16:00 +21°C° 0,5 mm 2 m/s 752 mmHg 85%
    17:00 +20°C° 0,5 mm 2 m/s 752 mmHg 88%
    18:00 +19°C° 0,3 mm 2 m/s 752 mmHg 91%
    19:00 +18°C° 0,3 mm 2 m/s 751 mmHg 94%
    20:00 +19°C° 0,3 mm 1 m/s 751 mmHg 96%
    21:00 +18°C° 0 mm 1 m/s 751 mmHg 97%
    22:00 +18°C° 0 mm 1 m/s 751 mmHg 97%
    23:00 +16°C° 0 mm 2 m/s 751 mmHg 98%

    21 August, Marţi

    Timp Temperatura Precipitaţii Vânt Presiune Umiditate
    00:00 +16°C° 0 mm 1 m/s 751 mmHg 98%
    01:00 +16°C° 0 mm 1 m/s 751 mmHg 98%
    02:00 +16°C° 0 mm 1 m/s 751 mmHg 98%
    03:00 +16°C° 0 mm 2 m/s 750 mmHg 98%
    04:00 +16°C° 0 mm 2 m/s 750 mmHg 98%
    05:00 +16°C° 0 mm 2 m/s 750 mmHg 98%
    06:00 +17°C° 0,1 mm 3 m/s 749 mmHg 96%
    07:00 +18°C° 0,1 mm 3 m/s 749 mmHg 94%
    08:00 +19°C° 0,1 mm 3 m/s 749 mmHg 92%
    09:00 +20°C° 0,6 mm 4 m/s 748 mmHg 90%
    10:00 +20°C° 0,6 mm 4 m/s 748 mmHg 88%
    11:00 +21°C° 0,6 mm 4 m/s 747 mmHg 86%
    12:00 +21°C° 1 mm 4 m/s 747 mmHg 86%
    13:00 +21°C° 1 mm 4 m/s 747 mmHg 86%
    14:00 +21°C° 1 mm 5 m/s 746 mmHg 86%
    15:00 +21°C° 1,5 mm 5 m/s 746 mmHg 88%
    16:00 +20°C° 1,5 mm 5 m/s 746 mmHg 90%
    17:00 +19°C° 1,5 mm 4 m/s 746 mmHg 92%
    18:00 +18°C° 0,3 mm 4 m/s 746 mmHg 93%
    19:00 +17°C° 0,3 mm 4 m/s 746 mmHg 94%
    20:00 +15°C° 0,3 mm 4 m/s 747 mmHg 95%
    21:00 +14°C° 0 mm 4 m/s 747 mmHg 95%
    22:00 +13°C° 0 mm 3 m/s 748 mmHg 96%
    23:00 +12°C° 0 mm 3 m/s 748 mmHg 97%

    22 August, Miercuri

    Timp Temperatura Precipitaţii Vânt Presiune Umiditate
    00:00 +12°C° 0 mm 3 m/s 749 mmHg 97%
    01:00 +11°C° 0 mm 3 m/s 749 mmHg 97%
    02:00 +11°C° 0 mm 3 m/s 750 mmHg 98%
    03:00 +10°C° 0 mm 2 m/s 750 mmHg 98%
    04:00 +10°C° 0 mm 2 m/s 750 mmHg 98%
    05:00 +10°C° 0 mm 2 m/s 751 mmHg 98%
    06:00 +12°C° 0 mm 2 m/s 751 mmHg 94%
    07:00 +13°C° 0 mm 2 m/s 751 mmHg 91%
    08:00 +14°C° 0 mm 2 m/s 752 mmHg 88%
    09:00 +16°C° 0 mm 2 m/s 752 mmHg 77%
    10:00 +18°C° 0 mm 2 m/s 752 mmHg 65%
    11:00 +20°C° 0 mm 2 m/s 752 mmHg 53%
    12:00 +21°C° 0 mm 2 m/s 752 mmHg 52%
    13:00 +21°C° 0 mm 2 m/s 752 mmHg 50%
    14:00 +22°C° 0 mm 3 m/s 752 mmHg 48%
    15:00 +21°C° 0 mm 2 m/s 751 mmHg 52%
    16:00 +21°C° 0 mm 2 m/s 751 mmHg 57%
    17:00 +21°C° 0 mm 2 m/s 751 mmHg 61%
    18:00 +20°C° 0,1 mm 2 m/s 750 mmHg 68%
    19:00 +18°C° 0,1 mm 2 m/s 750 mmHg 75%
    20:00 +17°C° 0,1 mm 3 m/s 750 mmHg 83%
    21:00 +17°C° 0,2 mm 3 m/s 749 mmHg 86%
    22:00 +17°C° 0,2 mm 3 m/s 749 mmHg 89%
    23:00 +17°C° 0,2 mm 4 m/s 748 mmHg 93%
    Arată mai mult